Wallops Island, VA

6:45 AM EST on December 11, 2019 (GMT -0500)
Wallops Flight Facility

Weather History for KWAL - October, 2019

Change the Weather History Date:

Thursday, October 3, 2019

  Actual Average Record
Temperature  
Mean Temperature 77 °F 64 °F  
Max Temperature 81 °F 72 °F 90 °F (2002)
Min Temperature 72 °F 55 °F 36 °F (1974)
Degree Days  
Heating Degree Days 0    
Month to date heating degree days 0  
Since 1 July heating degree days 9  
Cooling Degree Days 12    
Month to date cooling degree days 35  
Year to date cooling degree days 1782  
Growing Degree Days 23 (Base 50)    
Moisture  
Dew Point 70 °F    
Average Humidity 87    
Maximum Humidity 100    
Minimum Humidity 74    
Precipitation  
Precipitation T in 0.10 in 1.52 in (2010)
Month to date precipitation T 0.30  
Year to date precipitation 34.33 31.67  
Sea Level Pressure  
Sea Level Pressure 29.96 in    
Wind  
Wind Speed 11 mph (ENE)    
Max Wind Speed 23 mph    
Max Gust Speed 28 mph    
Visibility 9 miles    
Events      
T = Trace of Precipitation, MM = Missing Value Source: NWS Daily Summary

Daily Weather History Graph

Daily Weather History Graph

Search for Another Location

Airport or City:

Astronomy

Oct. 03, 2019 Rise Set
Actual Time 6:59 AM EDT 6:42 PM EDT
Civil Twilight 6:32 AM EDT 7:08 PM EDT
Nautical Twilight 6:02 AM EDT 7:38 PM EDT
Astronomical Twilight 5:31 AM EDT 8:09 PM EDT
Moon 12:23 PM EDT (10/3) 10:24 PM EDT (10/3)
Length of Visible Light 12h 35m
Length of Day
11h 43m
Waxing Crescent, 29% of the Moon is Illuminated
Oct 3
Waxing Crescent
Oct 5
First Quarter
Oct 13
Full
Oct 21
Last Quarter
Oct 27
New

Hourly Weather History & Observations

Time (EDT) Temp. Heat Index Dew Point Humidity Pressure Visibility Wind Dir Wind Speed Gust Speed Precip Events Conditions
12:54 AM 79.0 °F - 71.1 °F 77% 29.88 in 10.0 mi WSW 6.9 mph - N/A   Mostly Cloudy
1:54 AM 80.1 °F 83.6 °F 71.1 °F 74% 29.88 in 10.0 mi West 4.6 mph - N/A   Overcast
2:54 AM 79.0 °F - 70.0 °F 74% 29.87 in 10.0 mi Calm Calm - N/A   Overcast
3:54 AM 77.0 °F - 70.0 °F 79% 29.89 in 10.0 mi North 4.6 mph - N/A   Clear
4:54 AM 75.0 °F - 71.1 °F 87% 29.91 in 10.0 mi NE 9.2 mph - N/A   Clear
5:54 AM 73.9 °F - 71.1 °F 91% 29.93 in 10.0 mi NE 20.7 mph 25.3 mph N/A   Clear
6:06 AM 73.4 °F - 69.8 °F 88% 29.94 in 10.0 mi NE 21.9 mph - N/A   Partly Cloudy
6:31 AM 73.0 °F - 70.0 °F 90% 29.96 in 10.0 mi NE 20.7 mph - N/A   Mostly Cloudy
6:54 AM 73.0 °F - 70.0 °F 90% 29.96 in 10.0 mi NE 19.6 mph - N/A   Overcast
7:54 AM 72.0 °F - 69.1 °F 91% 29.98 in 10.0 mi ENE 17.3 mph - 0.00 in   Overcast
8:37 AM 73.0 °F - 70.0 °F 90% 29.99 in 9.0 mi ENE 16.1 mph - N/A   Overcast
8:47 AM 73.0 °F - 70.0 °F 90% 30.00 in 9.0 mi ENE 17.3 mph - N/A   Overcast
8:54 AM 73.9 °F - 70.0 °F 87% 29.99 in 9.0 mi ENE 15.0 mph - N/A   Overcast
9:54 AM 73.9 °F - 70.0 °F 87% 30.00 in 10.0 mi East 12.7 mph - N/A   Overcast
10:54 AM 73.9 °F - 70.0 °F 87% 30.00 in 10.0 mi East 12.7 mph - N/A   Overcast
11:54 AM 73.9 °F - 70.0 °F 87% 30.00 in 10.0 mi ENE 13.8 mph - N/A   Overcast
12:54 PM 75.0 °F - 70.0 °F 84% 29.99 in 10.0 mi ENE 11.5 mph - N/A   Overcast
1:54 PM 73.9 °F - 70.0 °F 87% 29.98 in 8.0 mi ENE 10.4 mph - N/A   Overcast
2:26 PM 73.9 °F - 70.0 °F 87% 29.98 in 7.0 mi ENE 11.5 mph - N/A   Overcast
2:54 PM 73.9 °F - 70.0 °F 87% 29.98 in 9.0 mi ENE 11.5 mph - N/A   Overcast
3:05 PM 75.0 °F - 71.1 °F 87% 29.98 in 8.0 mi ENE 10.4 mph - N/A   Overcast
3:15 PM 75.0 °F - 71.1 °F 87% 29.98 in 9.0 mi ENE 10.4 mph - N/A   Overcast
3:17 PM 75.9 °F - 71.1 °F 85% 29.98 in 9.0 mi ENE 10.4 mph - N/A   Overcast
3:30 PM 75.0 °F - 70.0 °F 84% 29.98 in 9.0 mi ENE 11.5 mph - N/A   Overcast
3:41 PM 75.0 °F - 70.0 °F 84% 29.98 in 9.0 mi ENE 10.4 mph - N/A   Overcast
3:51 PM 75.2 °F - 69.8 °F 83% 29.98 in 9.0 mi ENE 10.4 mph - N/A   Overcast
3:54 PM 75.0 °F - 70.0 °F 84% 29.97 in 9.0 mi ENE 11.5 mph - N/A   Overcast
4:06 PM 75.0 °F - 71.1 °F 87% 29.98 in 10.0 mi ENE 10.4 mph - N/A   Overcast
4:15 PM 73.9 °F - 70.0 °F 87% 29.98 in 10.0 mi ENE 8.1 mph - N/A   Overcast
4:28 PM 73.9 °F - 70.0 °F 87% 29.98 in 10.0 mi ENE 8.1 mph - N/A   Overcast
4:46 PM 73.9 °F - 70.0 °F 87% 29.98 in 10.0 mi East 9.2 mph - N/A   Overcast
4:54 PM 73.9 °F - 70.0 °F 87% 29.97 in 10.0 mi ENE 9.2 mph - N/A   Overcast
5:04 PM 73.9 °F - 70.0 °F 87% 29.98 in 10.0 mi ENE 9.2 mph - N/A   Overcast
5:54 PM 73.0 °F - 70.0 °F 90% 29.96 in 10.0 mi East 9.2 mph - N/A   Overcast
6:49 PM 71.6 °F - 69.8 °F 94% 29.97 in 9.0 mi East 8.1 mph - N/A   Overcast
6:54 PM 72.0 °F - 70.0 °F 93% 29.96 in 9.0 mi East 8.1 mph - N/A   Overcast
7:54 PM 72.0 °F - 70.0 °F 93% 29.96 in 10.0 mi East 8.1 mph - N/A   Overcast
8:54 PM 72.0 °F - 69.1 °F 91% 29.96 in 10.0 mi ESE 8.1 mph - N/A   Overcast
9:54 PM 72.0 °F - 70.0 °F 93% 29.96 in 10.0 mi ESE 9.2 mph - N/A   Overcast
10:54 PM 72.0 °F - 70.0 °F 93% 29.96 in 8.0 mi SE 10.4 mph - N/A   Overcast
11:14 PM 72.0 °F - 71.1 °F 97% 29.97 in 7.0 mi SE 10.4 mph - N/A   Overcast
11:30 PM 72.0 °F - 71.1 °F 97% 29.96 in 7.0 mi SE 9.2 mph - N/A   Overcast
11:54 PM 72.0 °F - 71.1 °F 97% 29.94 in 8.0 mi SSE 10.4 mph - N/A   Overcast